DW8185 Pensacola FL US current weather conditions

sailwx.info

Wind from 107 at 0 knots gusting 4

Air temperature 28.9° C
Dewpoint 24.0° C

Last reported at 2019-Oct-15 18:00 UTC.
Time now 2019-Oct-15 18:31 UTC

Location: N 30°31' W 087°20'.
View on Google Maps.

See reports from other nearby stations

  
Tides and Currents Weather Stations Pressure Air Temp Water Temp Dewpoint Dewpoint Depression Visibility Wind Speed Wind Dir Waves Ship Positions
date/time (UTC)wind fromknots sea level pressurealtimeterstation pressurevisibilityair tempwater tempwave heightnotes
2019-Oct-15 18:00 107 0 gusting 4 28.9
2019-Oct-15 17:45 119 0 gusting 5 28.9
2019-Oct-15 17:30 134 0 gusting 4 28.9
2019-Oct-15 17:15 133 3 gusting 7 28.3
2019-Oct-15 17:00 188 1 gusting 6 28.3
2019-Oct-15 16:45 163 1 gusting 6 27.8
2019-Oct-15 16:30 217 0 gusting 3 27.8
2019-Oct-15 16:15 264 27.2
2019-Oct-15 16:00 123 0 gusting 3 26.7
2019-Oct-15 15:46 111 0 gusting 3 26.1
2019-Oct-15 15:32 113 25.6
2019-Oct-15 15:16 141 24.4
2019-Oct-15 15:01 146 0 gusting 3 23.9
2019-Oct-15 14:46 113 23.9
2019-Oct-15 14:31 222 23.3
2019-Oct-15 14:17 124 22.8
2019-Oct-15 14:01 115 22.8
2019-Oct-15 13:45 111 22.2
2019-Oct-15 13:31 116 22.2
2019-Oct-15 13:16 127 22.2
2019-Oct-15 13:01 096 22.2
2019-Oct-15 12:46 134 21.7
2019-Oct-15 12:31 111 21.7
2019-Oct-15 12:16 103 21.7
2019-Oct-15 12:01 079 21.7
2019-Oct-15 11:46 047 21.7
2019-Oct-15 11:31 323 21.7
2019-Oct-15 11:16 219 21.7
2019-Oct-15 11:01 301 21.7
2019-Oct-15 10:45 298 21.7
2019-Oct-15 10:16 313 21.7
2019-Oct-15 10:00 304 21.7
2019-Oct-15 09:45 303 21.7
2019-Oct-15 09:30 303 21.7
2019-Oct-15 09:16 306 21.7
2019-Oct-15 09:00 306 21.7
2019-Oct-15 08:45 300 21.7
2019-Oct-15 08:30 300 21.7
2019-Oct-15 08:15 300 21.7
2019-Oct-15 08:00 300 21.7
2019-Oct-15 07:45 300 21.7
2019-Oct-15 07:30 300 21.7
2019-Oct-15 07:15 300 21.7
2019-Oct-15 07:00 300 21.7
2019-Oct-15 06:45 300 21.7
2019-Oct-15 06:30 300 21.7
2019-Oct-15 06:15 300 21.7
2019-Oct-15 06:00 300 21.7
2019-Oct-15 05:45 300 22.2
2019-Oct-15 05:31 300 22.2
2019-Oct-15 05:17 295 22.2
2019-Oct-15 05:02 323 22.2
2019-Oct-15 04:47 309 22.2
2019-Oct-15 04:31 309 22.2
2019-Oct-15 04:16 311 22.2
2019-Oct-15 04:01 319 22.2
2019-Oct-15 03:46 319 21.7
2019-Oct-15 03:31 344 21.7
2019-Oct-15 03:17 344 21.7
2019-Oct-15 03:03 137 21.7
2019-Oct-15 02:46 129 21.7
2019-Oct-15 02:32 129 21.7
2019-Oct-15 02:17 302 21.7
2019-Oct-15 02:02 307 21.7
2019-Oct-15 01:46 297 21.7
2019-Oct-15 01:31 302 21.7
2019-Oct-15 01:16 337 21.7
2019-Oct-15 01:01 297 21.7
2019-Oct-15 00:47 308 0 gusting 3 21.7
2019-Oct-15 00:31 302 21.7
2019-Oct-15 00:16 323 21.7
2019-Oct-15 00:01 301 22.2
2019-Oct-14 23:46 320 22.2
2019-Oct-14 23:31 304 22.2
2019-Oct-14 23:16 303 22.2
2019-Oct-14 23:02 339 0 gusting 3 22.8
2019-Oct-14 22:46 303 22.8
2019-Oct-14 22:31 331 0 gusting 3 22.8
2019-Oct-14 22:16 331 22.8
2019-Oct-14 22:01 312 22.8
2019-Oct-14 21:45 319 23.3
2019-Oct-14 21:31 321 23.3
2019-Oct-14 21:16 309 1 gusting 4 23.9
2019-Oct-14 21:01 309 25.0
2019-Oct-14 20:46 319 25.6
2019-Oct-14 20:31 125 25.6
2019-Oct-14 20:16 205 26.1
2019-Oct-14 20:01 302 25.6
2019-Oct-14 19:46 290 25.6
2019-Oct-14 19:30 217 26.1
2019-Oct-14 19:16 238 26.7
2019-Oct-14 19:00 296 1 gusting 6 27.8
2019-Oct-14 18:45 258 28.9
2019-Oct-14 18:30 093 1 gusting 4 28.9
2019-Oct-14 18:15 105 0 gusting 2 28.9
2019-Oct-14 18:00 097 29.4
2019-Oct-14 17:45 115 0 gusting 4 29.4
2019-Oct-14 17:30 253 28.9
2019-Oct-14 17:15 278 27.8
2019-Oct-14 17:00 304 27.8
2019-Oct-14 16:45 300 27.8
2019-Oct-14 16:30 131 27.8
2019-Oct-14 16:15 319 0 gusting 4 27.8
2019-Oct-14 16:00 065 1 gusting 5 28.9
2019-Oct-14 15:45 187 0 gusting 3 28.3
2019-Oct-14 15:30 310 27.8
2019-Oct-14 15:15 141 27.2
2019-Oct-14 15:00 297 1 gusting 4 25.0
2019-Oct-14 14:45 300 24.4
2019-Oct-14 14:31 297 23.9
2019-Oct-14 14:16 108 23.3
2019-Oct-14 14:01 328 0 gusting 4 22.8
2019-Oct-14 13:46 311 0 gusting 2 22.8
2019-Oct-14 13:32 315 22.2
2019-Oct-14 13:16 309 21.7
2019-Oct-14 13:01 307 21.1
2019-Oct-14 12:47 296 20.0
2019-Oct-14 12:30 308 18.9
2019-Oct-14 12:16 308 18.9
2019-Oct-14 12:01 308 18.9
2019-Oct-14 11:46 308 18.9
2019-Oct-14 11:31 308 18.9
2019-Oct-14 11:16 308 18.9
2019-Oct-14 11:01 308 18.9
2019-Oct-14 10:45 308 19.4
2019-Oct-14 10:31 308 19.4
2019-Oct-14 10:15 309 20.0
2019-Oct-14 10:01 313 20.0
2019-Oct-14 09:46 313 20.0
2019-Oct-14 09:30 313 20.0
2019-Oct-14 09:16 313 20.0
2019-Oct-14 09:01 310 20.0
2019-Oct-14 08:45 296 20.0
2019-Oct-14 08:30 299 20.6
2019-Oct-14 08:15 313 20.6
2019-Oct-14 08:00 313 20.6
2019-Oct-14 07:45 313 20.6
2019-Oct-14 07:30 312 21.1
2019-Oct-14 07:15 339 21.1
2019-Oct-14 07:00 076 21.1
2019-Oct-14 06:45 318 21.7
2019-Oct-14 06:30 081 21.7
2019-Oct-14 06:15 318 21.7
2019-Oct-14 06:00 349 21.7
2019-Oct-14 05:45 236 21.7
2019-Oct-14 05:16 043 21.1
2019-Oct-14 05:01 337 0 gusting 3 21.1
2019-Oct-14 04:47 312 21.1
2019-Oct-14 04:32 307 21.1
2019-Oct-14 04:17 309 21.1
2019-Oct-14 04:02 322 21.7
2019-Oct-14 03:47 286 21.7
2019-Oct-14 03:32 319 0 gusting 3 21.7
2019-Oct-14 03:16 326 22.2
2019-Oct-14 03:01 321 1 gusting 3 22.2
2019-Oct-14 02:46 313 22.2
2019-Oct-14 02:31 330 22.8
2019-Oct-14 02:16 335 1 gusting 5 22.8
2019-Oct-14 02:01 295 23.3
2019-Oct-14 01:46 341 1 gusting 6 23.3
2019-Oct-14 01:31 324 0 gusting 4 23.3
2019-Oct-14 01:16 322 2 gusting 5 23.9
2019-Oct-14 01:01 329 23.9
2019-Oct-14 00:46 316 1 gusting 5 23.9
2019-Oct-14 00:31 347 1 gusting 6 24.4
2019-Oct-14 00:15 315 0 gusting 6 25.0
2019-Oct-14 00:01 323 1 gusting 6 25.0
2019-Oct-13 23:47 329 0 gusting 2 25.6
2019-Oct-13 23:31 298 25.6
2019-Oct-13 23:16 295 26.1
2019-Oct-13 23:01 316 26.1
2019-Oct-13 22:46 297 0 gusting 2 26.7
2019-Oct-13 22:31 314 26.7
2019-Oct-13 22:16 282 27.2
2019-Oct-13 22:01 338 0 gusting 3 27.2
2019-Oct-13 21:46 323 0 gusting 4 27.2
2019-Oct-13 21:31 300 0 gusting 3 27.2
2019-Oct-13 21:16 338 1 gusting 4 27.2
2019-Oct-13 21:00 297 1 gusting 4 27.2
2019-Oct-13 20:45 327 2 gusting 5 27.8
2019-Oct-13 20:31 330 2 gusting 6 27.2
2019-Oct-13 20:15 309 2 gusting 7 27.8
2019-Oct-13 20:01 296 2 gusting 7 27.8
2019-Oct-13 19:46 297 3 gusting 6 27.8
2019-Oct-13 19:31 288 1 gusting 6 28.3
2019-Oct-13 19:17 287 28.3
2019-Oct-13 19:01 318 28.9
2019-Oct-13 18:45 278 0 gusting 3 27.8
2019-Oct-13 18:31 305 28.3
2019-Oct-13 18:15 175 29.4
2019-Oct-13 18:00 103 29.4